Location: Unspecified
(52.1384°N, 8.6525°W)
Time: 18:35:19
(UTC+00:00)

N. Korean satellite - Pass Details

Date: 27 October 2020
Orbit: 453 x 503 km, 97.2° (Epoch: 04 December)

Event Time Altitude Azimuth Distance (km) Brightness Sun altitude
Rises 05:22:30 0° 25° (NNE) 2,490 10.6 -18.8°
Reaches altitude 10° 05:24:56 10° 43° (NE) 1,605 9.8 -18.4°
Maximum altitude 05:27:34 20° 93° (E) 1,104 9.3 -18.0°
Drops below altitude 10° 05:30:10 10° 143° (SE) 1,590 9.6 -17.6°
Sets 05:32:34 0° 160° (SSE) 2,457 10.4 -17.2°
